Weather Roundup
Issued by NWS

Home | Current Version | Previous Version | Graphics & Text | Print | Product List | Glossary Off
Versions: 1 2 3 4 5 6 7 8 9 10 11 12 13 14 15 16 17 18 19 20 21 22 23 24 25 26 27 28 29 30 31 32 33 34 35 36 37 38 39 40 41 42 43 44 45 46 47 48 49 50

959
NZUS93 KARX 240059
HRRWXR

CURRENT HOURLY OBSERVATIONS ACROSS
MUCH OF THE UPPER MISSISSIPPI VALLEY
NATIONAL WEATHER SERVICE LA CROSSE WI
800 PM CDT MON MAY 23 2016


...SOUTHEAST MINNESOTA...


CITY           SKY/WX    TMP DP  RH WIND       PRES   REMARKS
ROCHESTER      CLOUDY    65  62  90 S10       29.81F
ROCHESTER/MAYO FAIR      65  61  86 S5        29.80R
WINONA         LGT RAIN  66  59  77 SW12G17   29.79F
AUSTIN         CLOUDY    66  61  82 S7        29.80F
ALBERT LEA     CLOUDY    66  63  88 S5        29.79F
DODGE CENTER   MOCLDY    64  61  88 S8        29.80F
PRESTON        CLOUDY    64  60  86 S7        29.82F
OWATONNA       LGT RAIN  66  59  77 S10       29.78F
FARIBAULT      CLOUDY    70  61  73 S10G17    29.78R
$$

...ELSEWHERE IN MINNESOTA...


CITY           SKY/WX    TMP DP  RH WIND       PRES   REMARKS
MINNEAPOLIS    CLOUDY    74  58  57 S15G23    29.74S
INTNL FALLS    CLOUDY    70  55  59 W3        29.69R
DULUTH         LGT RAIN  70  59  68 SW9       29.76R
RED WING       CLOUDY    72  55  56 SW3       29.76R
REDWOOD FALLS  CLOUDY    69  64  84 S13       29.73S
MANKATO        CLOUDY    72  59  64 S14       29.75F
WORTHINGTON    TSTM      63  61  93 S15       29.80F FOG
FAIRMONT       CLOUDY    70  61  73 SW15      29.78F
$$

...SOUTHWEST WISCONSIN...


CITY           SKY/WX    TMP DP  RH WIND       PRES   REMARKS
LA CROSSE      PTCLDY    74  55  51 SW16      29.80F
PRAIRIE DU CHI PTCLDY    80  42  26 S6        29.82S
BOSCOBEL       NOT AVBL
LONE ROCK      NOT AVBL
PLATTEVILLE    CLEAR     79  43  28 SW12      29.86F
FORT MC COY    PTCLDY    80  46  30 S7        29.82S
MAUSTON-NEW LI CLEAR     80  47  30 S8        29.83S
VIROQUA        FAIR      78  43  29 S10       29.84S
WIS DELLS      CLEAR     79  41  26 SW8       29.85F
$$

...ELSEWHERE IN WISCONSIN...


CITY           SKY/WX    TMP DP  RH WIND       PRES   REMARKS
MILWAUKEE      MOCLDY    69  36  29 S8        29.91F
MADISON        CLOUDY    78  47  33 S7        29.86S
GREEN BAY      CLEAR     73  45  36 S13       29.85S
EAU CLAIRE     NOT AVBL
BLACK RVR FLS  CLOUDY    81  41  24 S7        29.79S
MEDFORD        MOCLDY    77  47  34 S13       29.81F
WAUSAU         CLOUDY    79  45  29 S13       29.81S
WIS RAPIDS     CLOUDY    78  43  28 S9        29.83F
MARSHFIELD     PTCLDY    76  45  33 S12       29.81F
RICE LAKE      CLOUDY    74  59  60 SW10G20   29.78S
$$

...NORTHEAST IOWA...


CITY           SKY/WX    TMP DP  RH WIND       PRES   REMARKS
WATERLOO       CLOUDY    75  56  51 S9        29.81F
DUBUQUE        CLEAR     71  47  42 S8        29.87S
DECORAH        CLOUDY    72  61  68 SW5       29.82F
MASON CITY     MOCLDY    69  63  81 SW7       29.82S
CHARLES CITY   CLOUDY    73  68  83 S6        29.82F
OELWEIN        CLOUDY    79  55  44 SW13G20   29.83F
$$

...ELSEWHERE IN IOWA...


CITY           SKY/WX    TMP DP  RH WIND       PRES   REMARKS
DES MOINES     CLOUDY    72  59  63 SW3       29.83R
IOWA CITY      PTCLDY    77  51  40 S8        29.86S
FORT DODGE     CLOUDY    66  61  82 S7        29.82R
MARSHALLTOWN   CLOUDY    73  57  57 S7        29.81S
CEDAR RAPIDS   MOCLDY    77  53  43 S9        29.84S
$$

...NORTHERN ILLINOIS...


CITY           SKY/WX    TMP DP  RH WIND       PRES   REMARKS
CHICAGO-OHARE  MOCLDY    74  37  26 SE12      29.91S
CHICAGO-MIDWAY MOCLDY    75  38  26 E8        29.92S
MOLINE         CLOUDY    78  46  32 S6        29.86S
ROCKFORD       CLOUDY    80  46  30 SW6       29.90F
PEORIA         PTCLDY    76  46  34 SW5       29.89F
$$

NOTE: "FAIR" INDICATES FEW OR NO CLOUDS BELOW 12,000 FEET WITH NO
SIGNIFICANT WEATHER AND/OR OBSTRUCTIONS TO VISIBILITY. WIND
SPEEDS ARE IN MILES-PER-HOUR.




USA.gov is the U.S. government's official web portal to all federal, state and local government web resources and services.